Location: ?????oe
(44.4874°N, 135.7046°E)
Time: 22:36:04
(UTC+00:00)

Daily predictions for brighter satellites

Satellite Brightness Start Highest point End
(mag) Time Altitude Azimuth Time Altitude Azimuth Time Altitude Azimuth
Cosmos 2360 Rocket 4.3 18:39:48 20° NE 18:39:48 20° NE 18:43:48 10° E
Cosmos 2219 Rocket 4.5 18:53:12 15° NNE 18:54:35 17° NE 18:58:07 10° E
Cosmos 2333 Rocket 3.6 18:55:42 34° ENE 18:55:42 34° ENE 19:00:30 10° ESE
Cosmos 2322 Rocket 3.6 19:05:29 31° NE 19:06:08 32° NE 19:11:09 10° ESE
USA 59 Rocket 2.9 19:13:49 13° SSE 19:13:49 13° SSE 19:14:23 10° SSE
USA 234 4.3 19:03:54 10° NE 19:08:18 34° N 19:08:18 34° N
NOSS 3-1 (C) 4.0 19:33:19 65° WSW 19:33:41 66° WSW 19:42:37 10° SSE
Cosmos 2082 Rocket 4.2 19:39:56 16° N 19:39:56 16° N 19:41:05 10° N
SL-16 R/B 2.2 19:37:16 77° SE 19:37:16 77° SE 19:42:29 10° SSE
COSMOS 2406 4.3 19:43:25 31° N 19:43:25 31° N 19:46:29 10° NNE
Meteor 2-3 Rocket 3.6 19:41:53 10° SSW 19:47:37 83° W 19:53:19 10° N
ATLAS 3B R/B 4.4 19:49:03 18° NNW 19:53:36 29° NNE 20:00:06 10° E
Meteor 1-26 Rocket 4.4 19:51:26 21° N 19:55:12 70° ENE 20:00:57 10° SSE
Cosmos 1814 Rocket 4.3 19:55:34 10° S 20:00:45 68° ESE 20:06:01 10° NNE
Cosmos 2278 3.6 20:02:01 64° WNW 20:02:37 69° WSW 20:08:11 10° SSE
ISS -0.4 20:08:03 10° SSE 20:09:01 11° SE 20:09:58 10° ESE
Cosmos 158 Rocket 4.3 20:03:58 10° S 20:09:13 67° ESE 20:14:25 10° NNE
Cosmos 405 Rocket 3.2 20:09:42 10° S 20:12:51 48° E 20:16:02 10° NNE
Cosmos 2221 4.3 20:14:39 10° NNE 20:18:20 30° ENE 20:21:58 10° SE
Cosmos 1627 Rocket 4.4 20:15:20 10° SSW 20:21:22 63° W 20:27:29 10° N
Cosmos 2058 Rocket 3.0 20:23:28 54° NW 20:24:06 61° W 20:28:25 10° S
Cosmos 2360 Rocket 2.0 20:21:35 31° NNW 20:24:23 78° WSW 20:29:59 10° SSE
FengYun 1-2 T 4.4 20:20:42 10° N 20:26:09 50° WNW 20:31:34 10° SW
ATLAS 2AS CENTAUR R/B 3.1 20:20:57 10° SSW 20:27:57 66° ESE 20:34:46 10° NE
SKYMED 2 3.5 20:24:00 10° S 20:28:17 60° W 20:29:27 43° NW
Cosmos 1484 Rocket 3.7 20:26:41 10° NNE 20:29:55 41° E 20:33:07 10° S
Helios 1A Rocket 2.3 20:29:46 10° SSE 20:33:06 87° ENE 20:34:05 44° NNW
NOSS 8 (A) 4.2 20:35:36 61° SW 20:35:36 61° SW 20:38:54 10° SSE
CZ-4 R/B 3.7 20:32:27 10° N 20:37:00 59° WNW 20:41:31 10° SSW
Cosmos 1833 4.1 20:32:36 10° SSW 20:38:15 80° WNW 20:43:59 10° NNE
Cosmos 2026 Rocket 4.1 20:32:47 10° SSW 20:38:32 45° WNW 20:44:23 10° N
Cosmos 2219 Rocket 2.2 20:34:56 17° NNW 20:39:25 84° ENE 20:45:02 10° SSE
Cosmos 2333 Rocket 2.7 20:37:46 31° WNW 20:39:39 40° WSW 20:44:56 10° S
SL-24 R/B 4.3 20:35:53 10° N 20:40:49 53° WNW 20:45:07 10° SSW
IGS 5A 4.1 20:37:52 10° NNE 20:41:49 54° E 20:45:44 10° S
NOSS 3-1 (A) 4.3 20:39:48 24° NW 20:44:23 52° WSW 20:53:06 10° SSE
Cosmos 1437 Rocket 3.7 20:41:52 10° N 20:45:10 40° ENE 20:48:29 10° SSE
Cosmos-2242 3.4 20:44:49 35° WNW 20:45:23 37° W 20:49:14 10° SSW
Cosmos 2285 Rocket 4.0 20:40:21 13° NNW 20:46:03 70° WSW 20:52:25 10° S
COSMO-SKYMED 1 2.5 20:44:03 10° S 20:48:04 53° W 20:50:36 21° NNW
Cosmos 1758 Rocket 3.4 20:45:41 10° SSW 20:50:04 72° W 20:54:27 10° N
NOAA 12 4.3 20:45:03 10° N 20:50:05 47° WNW 20:55:05 10° SW
RUBIN 8/PSLV 4.4 20:45:55 10° N 20:50:11 69° WNW 20:54:24 10° SSW
Cosmos 2322 Rocket 2.6 20:47:19 24° NW 20:50:16 43° WSW 20:55:35 10° S
IRIDIUM 106 4.2 20:45:41 10° S 20:50:54 79° W 20:56:09 10° N
USA 234 4.3 20:46:22 10° ENE 20:51:51 30° N 20:55:38 17° NW
SL-4 R/B 1.8 20:56:47 33° W 20:57:44 45° SW 21:00:46 10° SE
Cosmos 1125 Rocket 3.6 20:52:36 10° NNW 20:57:53 81° ENE 21:03:05 10° SSE
SMAP 4.2 20:55:32 10° NNE 21:00:02 47° E 21:04:31 10° S
SL-08 ROCKET BODY 4.2 20:54:25 10° SSW 21:00:13 68° W 21:06:04 10° N
Cosmos 1842 4.5 20:57:35 10° N 21:00:40 35° ENE 21:03:43 10° SE
Cosmos 2322 4.3 21:00:21 10° NNW 21:05:56 57° ENE 21:11:30 10° SE
Cosmos 44 3.7 21:03:32 10° SSW 21:08:01 62° ESE 21:12:48 10° NE
SeaSat 1 4.5 21:07:38 10° NNW 21:07:48 10° NNW 21:07:48 10° NNW
Cosmos 1553 Rocket 4.2 21:04:07 10° NNW 21:10:17 52° W 21:16:26 10° SSW
KORONAS-FOTON 3.6 21:07:22 10° N 21:10:45 76° E 21:14:06 10° SSE
S3M 4.1 21:04:35 10° N 21:10:47 79° E 21:16:54 10° S
Cosmos 1626 Rocket 4.1 21:07:12 10° SW 21:11:16 36° WNW 21:15:21 10° N
USA 229 4.4 21:03:58 10° NNW 21:11:19 62° NE 21:19:23 10° SE
USA 229 DEB 4.4 21:04:02 10° NNW 21:11:24 62° NE 21:19:28 10° SE
IRS-1D 4.4 21:09:29 10° N 21:13:39 27° WNW 21:17:53 10° WSW
Meteor 1-19 Rocket 4.3 21:10:07 10° NNW 21:16:00 85° W 21:21:59 10° S
Meteor 1-10 Rocket 4.4 21:10:37 10° N 21:16:35 89° ENE 21:22:31 10° S
Cosmos 1743 2.9 21:15:01 10° SW 21:18:00 33° WNW 21:21:00 10° N
SL-16 R/B 3.8 21:19:10 13° W 21:20:03 14° W 21:22:47 10° SW
Cosmos 1238 Rocket 2.7 21:19:36 10° N 21:22:24 55° E 21:25:19 10° SSE
BREEZE-M DEB (TANK) 3.7 21:23:06 16° WNW 21:25:15 44° N 21:32:13 10° ENE
SAR-Lupe-4 4.1 21:27:08 10° NNE 21:30:40 63° ESE 21:34:11 10° S
CORIOLIS 4.2 21:25:34 10° NNE 21:31:00 90° WNW 21:36:25 10° SSW
COSMOS 2428 2.9 21:25:54 10° NNW 21:31:38 78° ENE 21:37:20 10° SSE
BREEZE M DEB (TANK) 2.1 21:32:32 11° W 21:34:53 57° NNW 21:39:59 10° ENE
Cosmos 2151 3.4 21:31:23 10° SW 21:35:11 37° WNW 21:39:01 10° N
ARIANE 5 R/B 2.9 21:32:07 10° NNE 21:37:22 74° ESE 21:42:34 10° S
Cosmos 2266 Rocket 4.1 21:31:53 10° SSW 21:38:08 58° WNW 21:44:22 10° N
Orbus 7S? 3.4 21:36:12 12° WNW 21:38:22 39° SW 21:41:30 10° SSE
Cosmos 1707 2.7 21:36:59 10° NNW 21:39:55 37° W 21:42:48 10° SSW
IRS-1C 4.4 21:35:41 10° NNE 21:41:01 76° ESE 21:46:20 10° S
SAR-Lupe-1 4.2 21:39:56 10° NNE 21:43:34 79° ESE 21:47:08 10° S
CZ-2D R/B 2.6 21:41:01 10° N 21:44:11 69° WNW 21:47:19 10° SSW
ISS -3.5 21:41:53 10° SW 21:45:15 76° SSE 21:48:37 10° ENE
ATLAS 3B R/B 3.1 21:37:37 10° NW 21:45:32 84° NE 21:52:57 10° SE
SJ-12 3.7 21:42:32 10° N 21:46:22 80° WNW 21:50:11 10° SSW
Cosmos 1812 Rocket 4.4 21:42:43 10° NNW 21:46:30 30° W 21:50:18 10° SSW
Cosmos 972 Rocket 4.4 21:42:33 10° NNW 21:48:59 77° WSW 21:54:39 10° S
ATLAS CENTAUR R/B 4.0 21:48:11 10° SSE 21:50:45 21° ESE 21:53:21 10° ENE
Cosmos 2221 3.6 21:51:59 10° NW 21:55:13 22° W 21:58:27 10° SW
